Time,TemperatureF,DewpointF,PressureIn,WindDirection,WindDirectionDegrees,WindSpeedMPH,WindSpeedGustMPH,Humidity,HourlyPrecipIn,Conditions,Clouds,dailyrainin,SoftwareType,DateUTC
2013-06-25 00:00:00,87.3,62.1,29.92,SSE,155,3.6,5.4,43,0.00,,---,0.00,VWS V14.00,2013-06-25 05:00:00,
2013-06-25 00:10:00,87.1,61.9,29.92,SE,145,2.7,7.4,43,0.00,,---,0.00,VWS V14.00,2013-06-25 05:10:00,
2013-06-25 00:20:00,87.1,61.9,29.92,SW,231,3.6,6.7,43,0.00,,---,0.00,VWS V14.00,2013-06-25 05:20:00,
2013-06-25 00:30:00,86.7,62.2,29.92,SSE,151,4.0,4.9,44,0.00,,---,0.00,VWS V14.00,2013-06-25 05:30:00,
2013-06-25 00:40:00,86.4,61.9,29.95,SSE,158,3.6,4.9,44,0.00,,---,0.00,VWS V14.00,2013-06-25 05:40:00,
2013-06-25 00:50:00,86.0,61.6,29.95,SSW,203,2.7,4.9,44,0.00,,---,0.00,VWS V14.00,2013-06-25 05:50:00,
2013-06-25 01:00:00,85.6,61.9,29.95,SSW,202,3.6,5.8,45,0.00,,---,0.00,VWS V14.00,2013-06-25 06:00:00,
2013-06-25 01:10:00,85.3,61.6,29.92,SW,225,3.6,5.4,45,0.00,,---,0.00,VWS V14.00,2013-06-25 06:10:00,
2013-06-25 01:20:00,84.9,61.8,29.92,SE,131,3.1,5.8,46,0.00,,---,0.00,VWS V14.00,2013-06-25 06:20:00,
2013-06-25 01:30:00,84.6,62.1,29.92,SW,223,3.6,6.7,47,0.00,,---,0.00,VWS V14.00,2013-06-25 06:30:00,
2013-06-25 01:40:00,84.2,61.8,29.92,SE,145,0.0,6.3,47,0.00,,---,0.00,VWS V14.00,2013-06-25 06:40:00,
2013-06-25 01:50:00,83.8,62.1,29.92,SW,214,3.6,5.8,48,0.00,,---,0.00,VWS V14.00,2013-06-25 06:50:00,
2013-06-25 02:00:00,83.5,61.8,29.92,SW,225,2.7,6.7,48,0.00,,---,0.00,VWS V14.00,2013-06-25 07:00:00,
2013-06-25 02:10:00,83.3,62.7,29.92,SW,217,5.4,5.4,50,0.00,,---,0.00,VWS V14.00,2013-06-25 07:10:00,
2013-06-25 02:20:00,82.9,63.0,29.92,SSW,192,4.0,5.8,51,0.00,,---,0.00,VWS V14.00,2013-06-25 07:20:00,
2013-06-25 02:30:00,82.6,63.2,29.92,SSW,203,3.6,6.3,52,0.00,,---,0.00,VWS V14.00,2013-06-25 07:30:00,
2013-06-25 02:40:00,82.2,63.4,29.92,SSW,212,5.4,7.8,53,0.00,,---,0.00,VWS V14.00,2013-06-25 07:40:00,
2013-06-25 02:50:00,81.9,63.6,29.92,SSW,210,2.7,7.8,54,0.00,,---,0.00,VWS V14.00,2013-06-25 07:50:00,
2013-06-25 03:00:00,81.5,63.8,29.92,SW,218,3.1,7.4,55,0.00,,---,0.00,VWS V14.00,2013-06-25 08:00:00,
2013-06-25 03:10:00,81.3,64.7,29.92,SSE,154,4.5,7.8,57,0.00,,---,0.00,VWS V14.00,2013-06-25 08:10:00,
2013-06-25 03:20:00,81.0,64.8,29.92,SW,221,3.6,9.6,58,0.00,,---,0.00,VWS V14.00,2013-06-25 08:20:00,
2013-06-25 03:30:00,80.6,65.0,29.92,SSE,148,3.6,6.7,59,0.00,,---,0.00,VWS V14.00,2013-06-25 08:30:00,
2013-06-25 03:40:00,80.2,65.1,29.92,SSE,153,0.0,8.3,60,0.00,,---,0.00,VWS V14.00,2013-06-25 08:40:00,
2013-06-25 03:49:00,80.1,65.4,29.92,SW,223,2.7,5.4,61,0.00,,---,0.00,VWS V14.00,2013-06-25 08:49:00,
2013-06-25 03:59:00,79.9,65.7,29.92,ENE,58,3.1,9.6,62,0.00,,---,0.00,VWS V14.00,2013-06-25 08:59:00,
2013-06-25 04:09:00,79.7,66.0,29.92,SSE,158,0.0,6.9,63,0.00,,---,0.00,VWS V14.00,2013-06-25 09:09:00,
2013-06-25 04:19:00,79.5,66.3,29.92,SSW,193,3.1,6.9,64,0.00,,---,0.00,VWS V14.00,2013-06-25 09:19:00,
2013-06-25 04:29:00,79.3,66.6,29.92,SSW,201,2.7,6.3,65,0.00,,---,0.00,VWS V14.00,2013-06-25 09:29:00,
2013-06-25 04:39:00,79.0,66.7,29.92,SSW,206,3.6,5.8,66,0.00,,---,0.00,VWS V14.00,2013-06-25 09:39:00,
2013-06-25 04:49:00,78.8,66.5,29.92,WSW,242,5.4,6.3,66,0.00,,---,0.00,VWS V14.00,2013-06-25 09:49:00,
2013-06-25 04:59:00,78.6,66.8,29.92,SE,130,3.1,5.4,67,0.00,,---,0.00,VWS V14.00,2013-06-25 09:59:00,
2013-06-25 05:09:00,78.3,66.8,29.92,SSW,212,3.6,6.9,68,0.00,,---,0.00,VWS V14.00,2013-06-25 10:09:00,
2013-06-25 05:19:00,78.1,66.7,29.92,SW,220,3.1,5.4,68,0.00,,---,0.00,VWS V14.00,2013-06-25 10:19:00,
2013-06-25 05:29:00,77.9,66.9,29.92,SSW,199,4.5,4.5,69,0.00,,---,0.00,VWS V14.00,2013-06-25 10:29:00,
2013-06-25 05:39:00,77.9,67.3,29.92,SSE,147,3.6,7.4,70,0.00,,---,0.00,VWS V14.00,2013-06-25 10:39:00,
2013-06-25 05:49:00,77.7,67.6,29.92,South,177,0.0,4.5,71,0.00,,---,0.00,VWS V14.00,2013-06-25 10:49:00,
2013-06-25 05:59:00,77.5,67.8,29.92,SSW,205,3.6,5.4,72,0.00,,---,0.00,VWS V14.00,2013-06-25 10:59:00,
2013-06-25 06:09:00,77.5,68.2,29.92,SSE,156,2.7,5.8,73,0.00,,---,0.00,VWS V14.00,2013-06-25 11:09:00,
2013-06-25 06:19:00,77.4,68.0,29.95,SE,145,0.0,5.8,73,0.00,,---,0.00,VWS V14.00,2013-06-25 11:19:00,
2013-06-25 06:29:00,77.4,68.4,29.95,SSW,206,3.6,5.8,74,0.00,,---,0.00,VWS V14.00,2013-06-25 11:29:00,
2013-06-25 06:39:00,77.5,68.6,29.95,SSW,195,3.6,4.5,74,0.00,,---,0.00,VWS V14.00,2013-06-25 11:39:00,
2013-06-25 06:49:00,77.7,69.2,29.95,SE,143,0.0,4.9,75,0.00,,---,0.00,VWS V14.00,2013-06-25 11:49:00,
2013-06-25 06:59:00,77.7,69.2,29.95,South,179,2.7,6.9,75,0.00,,---,0.00,VWS V14.00,2013-06-25 11:59:00,
2013-06-25 07:10:00,77.9,69.3,29.95,SE,136,2.7,5.8,75,0.00,,---,0.00,VWS V14.00,2013-06-25 12:10:00,
2013-06-25 07:19:00,77.9,69.3,29.95,SE,142,0.0,4.9,75,0.00,,---,0.00,VWS V14.00,2013-06-25 12:19:00,
2013-06-25 07:29:00,77.9,69.3,29.95,SSE,165,0.0,5.8,75,0.00,,---,0.00,VWS V14.00,2013-06-25 12:29:00,
2013-06-25 07:39:00,77.9,69.7,29.95,SSW,194,0.0,5.4,76,0.00,,---,0.00,VWS V14.00,2013-06-25 12:39:00,
2013-06-25 07:49:00,78.1,69.9,29.95,SSW,203,2.7,5.8,76,0.00,,---,0.00,VWS V14.00,2013-06-25 12:49:00,
2013-06-25 07:59:00,78.4,70.6,29.95,SSE,152,0.0,4.9,77,0.00,,---,0.00,VWS V14.00,2013-06-25 12:59:00,
2013-06-25 08:09:00,78.6,70.8,29.95,SSE,154,2.7,5.4,77,0.00,,---,0.00,VWS V14.00,2013-06-25 13:09:00,
2013-06-25 08:19:00,79.2,71.3,29.95,SSW,196,4.0,4.5,77,0.00,,---,0.00,VWS V14.00,2013-06-25 13:19:00,
2013-06-25 08:29:00,79.2,71.3,29.95,WSW,241,0.0,5.4,77,0.00,,---,0.00,VWS V14.00,2013-06-25 13:29:00,
2013-06-25 08:39:00,79.9,71.6,29.95,SSE,149,0.0,6.3,76,0.00,,---,0.00,VWS V14.00,2013-06-25 13:39:00,
2013-06-25 08:49:00,80.2,72.0,29.95,SW,221,0.0,5.8,76,0.00,,---,0.00,VWS V14.00,2013-06-25 13:49:00,
2013-06-25 08:59:00,81.0,72.7,29.98,SW,221,0.0,5.8,76,0.00,,---,0.00,VWS V14.00,2013-06-25 13:59:00,
2013-06-25 09:09:00,81.9,72.8,29.98,South,188,4.0,5.8,74,0.00,,---,0.00,VWS V14.00,2013-06-25 14:09:00,
2013-06-25 09:19:00,82.8,73.2,29.98,SW,218,3.1,5.8,73,0.00,,---,0.00,VWS V14.00,2013-06-25 14:19:00,
2013-06-25 09:29:00,82.6,72.2,29.98,SW,222,3.6,5.4,71,0.00,,---,0.00,VWS V14.00,2013-06-25 14:29:00,
2013-06-25 09:39:00,83.1,72.3,29.98,SW,225,4.0,6.3,70,0.00,,---,0.00,VWS V14.00,2013-06-25 14:39:00,
2013-06-25 09:49:00,83.5,71.8,29.98,SW,217,3.1,6.9,68,0.00,,---,0.00,VWS V14.00,2013-06-25 14:49:00,
2013-06-25 09:59:00,84.2,72.1,29.95,West,277,4.0,8.7,67,0.00,,---,0.00,VWS V14.00,2013-06-25 14:59:00,
2013-06-25 10:09:00,84.7,72.1,29.95,SW,214,0.0,6.3,66,0.00,,---,0.00,VWS V14.00,2013-06-25 15:09:00,
2013-06-25 10:19:00,85.1,72.0,29.95,WSW,255,3.1,6.9,65,0.00,,---,0.00,VWS V14.00,2013-06-25 15:19:00,
2013-06-25 10:29:00,85.6,71.6,29.95,SSW,209,2.7,7.8,63,0.00,,---,0.00,VWS V14.00,2013-06-25 15:29:00,
2013-06-25 10:39:00,85.6,71.1,29.95,WSW,238,4.5,6.3,62,0.00,,---,0.00,VWS V14.00,2013-06-25 15:39:00,
2013-06-25 10:49:00,86.0,71.0,29.95,WSW,246,3.1,6.9,61,0.00,,---,0.00,VWS V14.00,2013-06-25 15:49:00,
2013-06-25 10:59:00,86.9,71.3,29.95,SE,126,3.1,6.3,60,0.00,,---,0.00,VWS V14.00,2013-06-25 15:59:00,
2013-06-25 11:09:00,87.3,71.2,29.95,SW,223,0.0,6.9,59,0.00,,---,0.00,VWS V14.00,2013-06-25 16:09:00,
2013-06-25 11:19:00,88.2,71.0,29.95,West,268,0.0,5.8,57,0.00,,---,0.00,VWS V14.00,2013-06-25 16:19:00,
2013-06-25 11:29:00,88.5,70.8,29.95,WSW,242,3.1,8.3,56,0.00,,---,0.00,VWS V14.00,2013-06-25 16:29:00,
2013-06-25 11:39:00,88.9,70.6,29.95,South,184,3.1,6.3,55,0.00,,---,0.00,VWS V14.00,2013-06-25 16:39:00,
2013-06-25 11:49:00,89.4,70.6,29.95,WSW,243,4.5,5.4,54,0.00,,---,0.00,VWS V14.00,2013-06-25 16:49:00,
2013-06-25 11:59:00,90.1,70.7,29.95,WSW,239,4.9,5.4,53,0.00,,---,0.00,VWS V14.00,2013-06-25 16:59:00,
2013-06-25 12:09:00,90.9,70.2,29.95,SW,214,3.6,6.7,51,0.00,,---,0.00,VWS V14.00,2013-06-25 17:09:00,
2013-06-25 12:19:00,91.6,69.1,29.95,SW,214,3.1,5.4,48,0.00,,---,0.00,VWS V14.00,2013-06-25 17:19:00,
2013-06-25 12:29:00,91.8,68.1,29.92,SSW,199,3.1,5.4,46,0.00,,---,0.00,VWS V14.00,2013-06-25 17:29:00,
2013-06-25 12:39:00,92.1,67.7,29.92,WSW,248,3.6,6.9,45,0.00,,---,0.00,VWS V14.00,2013-06-25 17:39:00,
2013-06-25 12:49:00,92.7,66.9,29.92,SW,219,4.5,7.4,43,0.00,,---,0.00,VWS V14.00,2013-06-25 17:49:00,
2013-06-25 12:59:00,93.2,66.7,29.92,SE,140,5.4,6.3,42,0.00,,---,0.00,VWS V14.00,2013-06-25 17:59:00,
2013-06-25 13:09:00,93.7,66.5,29.92,SSW,198,3.6,6.9,41,0.00,,---,0.00,VWS V14.00,2013-06-25 18:09:00,
2013-06-25 13:19:00,94.5,65.7,29.92,SSW,207,0.0,8.7,39,0.00,,---,0.00,VWS V14.00,2013-06-25 18:19:00,
2013-06-25 13:29:00,94.5,64.9,29.92,SSW,192,2.7,6.7,38,0.00,,---,0.00,VWS V14.00,2013-06-25 18:29:00,
2013-06-25 13:39:00,94.8,64.5,29.89,WSW,244,2.7,6.7,37,0.00,,---,0.00,VWS V14.00,2013-06-25 18:39:00,
2013-06-25 13:49:00,95.4,65.0,29.89,WSW,243,4.0,5.8,37,0.00,,---,0.00,VWS V14.00,2013-06-25 18:49:00,
2013-06-25 13:59:00,95.4,65.0,29.89,SSW,198,3.1,6.3,37,0.00,,---,0.00,VWS V14.00,2013-06-25 18:59:00,
2013-06-25 14:09:00,95.7,64.5,29.89,ENE,71,3.6,7.8,36,0.00,,---,0.00,VWS V14.00,2013-06-25 19:09:00,
2013-06-25 14:19:00,95.7,64.5,29.89,SW,227,5.8,6.9,36,0.00,,---,0.00,VWS V14.00,2013-06-25 19:19:00,
2013-06-25 14:29:00,95.7,64.5,29.89,SW,221,2.7,5.8,36,0.00,,---,0.00,VWS V14.00,2013-06-25 19:29:00,
2013-06-25 14:39:00,96.3,65.0,29.89,WSW,254,3.6,7.8,36,0.00,,---,0.00,VWS V14.00,2013-06-25 19:39:00,
2013-06-25 14:49:00,96.3,64.2,29.89,South,170,3.6,4.5,35,0.00,,---,0.00,VWS V14.00,2013-06-25 19:49:00,
2013-06-25 14:59:00,96.6,64.5,29.86,SSW,208,4.5,10.1,35,0.00,,---,0.00,VWS V14.00,2013-06-25 19:59:00,
2013-06-25 15:09:00,96.8,64.7,29.86,SSW,209,3.6,12.1,35,0.00,,---,0.00,VWS V14.00,2013-06-25 20:09:00,
2013-06-25 15:19:00,96.6,64.5,29.86,SW,226,0.0,5.8,35,0.00,,---,0.00,VWS V14.00,2013-06-25 20:19:00,
2013-06-25 15:29:00,97.2,65.0,29.86,SE,134,3.1,6.7,35,0.00,,---,0.00,VWS V14.00,2013-06-25 20:29:00,
2013-06-25 15:39:00,97.3,64.3,29.86,West,265,3.6,7.4,34,0.00,,---,0.00,VWS V14.00,2013-06-25 20:39:00,
2013-06-25 15:49:00,97.5,64.4,29.86,SE,125,3.1,6.7,34,0.00,,---,0.00,VWS V14.00,2013-06-25 20:49:00,
2013-06-25 15:59:00,97.5,63.6,29.86,South,173,4.0,5.8,33,0.00,,---,0.00,VWS V14.00,2013-06-25 20:59:00,
2013-06-25 16:09:00,97.5,63.6,29.86,ENE,60,3.1,5.4,33,0.00,,---,0.00,VWS V14.00,2013-06-25 21:09:00,
2013-06-25 16:19:00,97.5,63.6,29.86,SSE,165,3.1,7.8,33,0.00,,---,0.00,VWS V14.00,2013-06-25 21:19:00,
2013-06-25 16:29:00,97.5,63.6,29.86,SW,221,4.0,8.7,33,0.00,,---,0.00,VWS V14.00,2013-06-25 21:29:00,
2013-06-25 16:39:00,97.7,62.9,29.86,WSW,239,5.4,5.4,32,0.00,,---,0.00,VWS V14.00,2013-06-25 21:39:00,
2013-06-25 16:49:00,97.7,62.9,29.86,SSE,151,2.7,6.7,32,0.00,,---,0.00,VWS V14.00,2013-06-25 21:49:00,
2013-06-25 16:59:00,97.7,62.9,29.86,West,267,3.1,6.3,32,0.00,,---,0.00,VWS V14.00,2013-06-25 21:59:00,
2013-06-25 17:09:00,97.5,62.7,29.83,SSE,162,3.6,6.3,32,0.00,,---,0.00,VWS V14.00,2013-06-25 22:09:00,
2013-06-25 17:19:00,97.3,62.6,29.83,SSE,148,3.6,6.3,32,0.00,,---,0.00,VWS V14.00,2013-06-25 22:19:00,
2013-06-25 17:29:00,97.0,61.4,29.83,SSW,200,4.9,9.6,31,0.00,,---,0.00,VWS V14.00,2013-06-25 22:29:00,
2013-06-25 17:39:00,96.8,61.2,29.83,SW,223,3.1,6.7,31,0.00,,---,0.00,VWS V14.00,2013-06-25 22:39:00,
2013-06-25 17:49:00,96.6,61.0,29.83,ESE,123,4.9,5.4,31,0.00,,---,0.00,VWS V14.00,2013-06-25 22:49:00,
2013-06-25 17:59:00,96.3,60.7,29.83,SSW,207,3.1,7.8,31,0.00,,---,0.00,VWS V14.00,2013-06-25 22:59:00,
2013-06-25 18:09:00,95.9,60.4,29.83,South,190,4.9,10.5,31,0.00,,---,0.00,VWS V14.00,2013-06-25 23:09:00,
2013-06-25 18:19:00,95.9,60.4,29.83,SSW,193,0.0,6.7,31,0.00,,---,0.00,VWS V14.00,2013-06-25 23:19:00,
2013-06-25 18:29:00,95.7,60.3,29.83,SSE,167,3.6,9.6,31,0.00,,---,0.00,VWS V14.00,2013-06-25 23:29:00,
2013-06-25 18:39:00,95.4,59.0,29.80,WNW,302,3.6,6.7,30,0.00,,---,0.00,VWS V14.00,2013-06-25 23:39:00,
2013-06-25 18:50:00,95.2,58.9,29.80,SSE,157,2.7,4.9,30,0.00,,---,0.00,VWS V14.00,2013-06-25 23:50:00,
2013-06-25 18:59:00,95.2,58.9,29.80,SSW,212,6.3,7.4,30,0.00,,---,0.00,VWS V14.00,2013-06-25 23:59:00,
2013-06-25 19:09:00,95.0,58.7,29.80,SSW,201,2.7,8.7,30,0.00,,---,0.00,VWS V14.00,2013-06-26 00:09:00,
2013-06-25 19:19:00,94.8,57.6,29.80,SE,130,3.1,6.9,29,0.00,,---,0.00,VWS V14.00,2013-06-26 00:19:00,
2013-06-25 19:29:00,94.6,57.5,29.80,WSW,240,4.0,6.7,29,0.00,,---,0.00,VWS V14.00,2013-06-26 00:29:00,
2013-06-25 19:39:00,94.5,57.3,29.80,SSE,163,0.0,6.7,29,0.00,,---,0.00,VWS V14.00,2013-06-26 00:39:00,
2013-06-25 19:49:00,94.3,57.2,29.80,SSE,168,3.1,6.7,29,0.00,,---,0.00,VWS V14.00,2013-06-26 00:49:00,
2013-06-25 19:59:00,93.9,56.9,29.80,SSE,168,0.0,4.9,29,0.00,,---,0.00,VWS V14.00,2013-06-26 00:59:00,
2013-06-25 20:09:00,93.6,57.5,29.80,South,191,0.0,5.8,30,0.00,,---,0.00,VWS V14.00,2013-06-26 01:09:00,
2013-06-25 20:19:00,93.2,57.2,29.80,South,181,0.0,4.5,30,0.00,,---,0.00,VWS V14.00,2013-06-26 01:19:00,
2013-06-25 20:29:00,92.8,56.9,29.80,ENE,61,0.0,8.7,30,0.00,,---,0.00,VWS V14.00,2013-06-26 01:29:00,
2013-06-25 20:39:00,92.7,56.7,29.80,ENE,57,0.0,4.5,30,0.00,,---,0.00,VWS V14.00,2013-06-26 01:39:00,
2013-06-25 20:49:00,92.3,56.4,29.80,SSE,148,0.0,4.5,30,0.00,,---,0.00,VWS V14.00,2013-06-26 01:49:00,
2013-06-25 20:59:00,92.1,57.2,29.80,SSW,207,0.0,5.8,31,0.00,,---,0.00,VWS V14.00,2013-06-26 01:59:00,
2013-06-25 21:09:00,91.8,56.9,29.80,South,181,0.0,4.9,31,0.00,,---,0.00,VWS V14.00,2013-06-26 02:09:00,
2013-06-25 21:19:00,91.6,56.7,29.80,South,185,0.0,4.9,31,0.00,,---,0.00,VWS V14.00,2013-06-26 02:19:00,
2013-06-25 21:29:00,90.9,56.1,29.80,SE,144,0.0,5.4,31,0.00,,---,0.00,VWS V14.00,2013-06-26 02:29:00,
2013-06-25 21:39:00,90.5,56.6,29.80,SSE,152,0.0,4.0,32,0.00,,---,0.00,VWS V14.00,2013-06-26 02:39:00,
2013-06-25 21:49:00,90.1,57.2,29.80,South,183,0.0,4.5,33,0.00,,---,0.00,VWS V14.00,2013-06-26 02:49:00,
2013-06-25 21:59:00,89.6,57.5,29.83,South,177,2.7,5.4,34,0.00,,---,0.00,VWS V14.00,2013-06-26 02:59:00,
2013-06-25 22:09:00,89.6,58.3,29.83,SW,229,0.0,5.8,35,0.00,,---,0.00,VWS V14.00,2013-06-26 03:09:00,
2013-06-25 22:19:00,89.4,58.2,29.83,SW,215,2.7,6.9,35,0.00,,---,0.00,VWS V14.00,2013-06-26 03:19:00,
2013-06-25 22:29:00,89.4,58.2,29.83,SSW,212,0.0,4.5,35,0.00,,---,0.00,VWS V14.00,2013-06-26 03:29:00,
2013-06-25 22:39:00,89.1,58.7,29.83,ESE,112,0.0,6.3,36,0.00,,---,0.00,VWS V14.00,2013-06-26 03:39:00,
2013-06-25 22:49:00,88.7,59.1,29.83,SSE,153,3.6,4.9,37,0.00,,---,0.00,VWS V14.00,2013-06-26 03:49:00,
2013-06-25 22:59:00,88.2,59.4,29.83,SSE,166,0.0,5.4,38,0.00,,---,0.00,VWS V14.00,2013-06-26 03:59:00,
2013-06-25 23:09:00,87.8,59.1,29.83,South,185,3.1,7.8,38,0.00,,---,0.00,VWS V14.00,2013-06-26 04:09:00,
2013-06-25 23:19:00,87.6,59.6,29.83,SSE,147,3.6,6.3,39,0.00,,---,0.00,VWS V14.00,2013-06-26 04:19:00,
2013-06-25 23:29:00,87.3,59.3,29.83,SW,224,2.7,4.9,39,0.00,,---,0.00,VWS V14.00,2013-06-26 04:29:00,
2013-06-25 23:39:00,87.1,59.8,29.83,SE,145,0.0,4.9,40,0.00,,---,0.00,VWS V14.00,2013-06-26 04:39:00,
2013-06-25 23:49:00,86.7,60.2,29.83,SSW,201,0.0,4.9,41,0.00,,---,0.00,VWS V14.00,2013-06-26 04:49:00,
2013-06-25 23:59:00,86.4,59.9,29.83,SSE,168,0.0,4.0,41,0.00,,---,0.00,VWS V14.00,2013-06-26 04:59:00,